Flag for Norway Weather past 2 weeks in Sandnes, Norway

Now
59 °F

Passing clouds.


Feels Like: 58 °F
Forecast: 54 / 65 °F
Wind: 6 mph from Southwest

Location: Stavanger / Sola

Current Time: Aug 29, 2015 at 3:09:23 AM

Latest Report: Aug 29, 2015 at 1:50 AM


Visibility: N/A

Pressure: 29.92 "Hg

Humidity: 82%

Dew point: 54 °F

Location of SandnesLocation

Historic Weather in Sandnes — Graph

°F

Sandnes temperature yesterday

Maximum temperature yesterday: 64 °F (at 3:20 PM)
Minimum temperature yesterday: 54 °F (at 2:50 AM)
Average temperature yesterday: 60 °F

Past Weeks' High & Low Weather Summary

 TemperatureHumidityPressure
High81 °F (Aug 14, 4:20 PM)100% (Aug 15, 10:20 PM)30.24 "Hg (Aug 15, 10:20 PM)
Low52 °F (Aug 14, 1:50 AM)28% (Aug 14, 4:20 PM)29.47 "Hg (Aug 27, 1:20 PM)
Average66 °F66%29.92 "Hg
* Reported Aug 14 1:20 AM — Aug 29 1:50 AM, Sandnes, Weather by CustomWeather, © 2015

Note: Actual official high and low records may vary slightly from our data, if they occured in-between our weather recording intervals... More about our weather records

Advertising

Sandnes weather history for previous 24 hours

 ConditionsComfort  
Time TempWeatherWind HumidityBarometerVisibility
1:50 AM
Sat, Aug 29
59 °FPassing clouds.6 mph82%29.92 "HgN/A
12:50 AM59 °FPassing clouds.8 mph82%29.92 "HgN/A
12:20 AM59 °FPartly cloudy.9 mph82%29.89 "HgN/A
11:50 PM
Fri, Aug 28
59 °FPassing clouds.9 mph82%29.89 "HgN/A
10:50 PM59 °FPassing clouds.10 mph82%29.89 "HgN/A
10:20 PM59 °FPassing clouds.9 mph82%29.89 "HgN/A
9:50 PM59 °FPassing clouds.9 mph82%29.86 "HgN/A
9:20 PM59 °FScattered clouds.12 mph82%29.86 "HgN/A
8:50 PM61 °FScattered clouds.9 mph77%29.86 "HgN/A
8:20 PM61 °FScattered clouds.13 mph77%29.86 "HgN/A
7:50 PM61 °FScattered clouds.13 mph77%29.83 "HgN/A
7:20 PM61 °FScattered clouds.14 mph77%29.83 "HgN/A
6:50 PM61 °FScattered clouds.16 mph72%29.83 "HgN/A
6:20 PM63 °FScattered clouds.15 mph68%29.83 "HgN/A
5:50 PM63 °FScattered clouds.14 mph68%29.83 "HgN/A
5:20 PM63 °FScattered clouds.17 mph68%29.83 "HgN/A
4:50 PM63 °FScattered clouds.17 mph68%29.83 "HgN/A
4:20 PM64 °FScattered clouds.18 mph68%29.80 "HgN/A
3:50 PM63 °FBroken clouds.17 mph73%29.80 "HgN/A
3:20 PM64 °FScattered clouds.16 mph73%29.80 "HgN/A
2:50 PM63 °FScattered clouds.14 mph73%29.80 "HgN/A
2:20 PM63 °FScattered clouds.15 mph73%29.80 "HgN/A
1:50 PM63 °FScattered clouds.13 mph73%29.80 "HgN/A
1:20 PM63 °FScattered clouds.13 mph73%29.77 "HgN/A
12:50 PM63 °FScattered clouds.13 mph73%29.77 "HgN/A
12:20 PM63 °FScattered clouds.13 mph68%29.77 "HgN/A
11:50 AM61 °FScattered clouds.13 mph72%29.77 "HgN/A
11:20 AM61 °FScattered clouds.12 mph72%29.74 "HgN/A
10:50 AM61 °FScattered clouds.14 mph72%29.74 "HgN/A
10:20 AM59 °FScattered clouds.14 mph77%29.74 "HgN/A
9:50 AM61 °FBroken clouds.14 mph77%29.71 "HgN/A
9:20 AM59 °FBroken clouds.13 mph82%29.71 "HgN/A
8:50 AM59 °FScattered clouds.13 mph82%29.68 "HgN/A
8:20 AM59 °FScattered showers. Scattered clouds.14 mph82%29.68 "HgN/A
7:50 AM59 °FScattered showers. Broken clouds.8 mph82%29.68 "HgN/A
7:20 AM57 °FScattered showers. Partly cloudy.8 mph88%29.65 "HgN/A
6:50 AM57 °FScattered showers. Partly cloudy.8 mph88%29.65 "HgN/A
5:50 AM57 °FPassing clouds.6 mph82%29.65 "HgN/A
4:50 AM59 °FPartly cloudy.8 mph82%29.62 "HgN/A
3:50 AM57 °FPartly cloudy.8 mph88%29.59 "HgN/A
Weather by CustomWeather, © 2015

See weather overviewHow to use our weather pages